#timestamp,LO_Frequency,Hit,StdDev 
1621666815.1,286046998.6,N
1621666835.9,286047001.0,N
1621666855.7,286047002.6,N
1621666875.5,286047002.1,N
1621666895.4,286046999.9,N
1621666915.2,286047000.9,N
1621666935.1,286046999.8,N
1621666936.0,286046999.8,N
1621666955.8,286046999.0,N
1621666975.6,286046995.3,N
1621666995.5,286046995.3,N
1621667015.3,286046997.0,N
1621667035.1,286046998.9,N
1621667055.9,286046997.4,N
1621667075.7,286047002.8,N
1621667095.6,286047000.1,N
1621667115.4,286047002.3,N
1621667135.2,286047002.4,N
1621667155.1,286046999.9,N
1621667156.0,286046999.9,N
1621667175.8,286047002.8,N
1621667195.6,286047000.2,N
1621667215.5,286047000.6,N
1621667235.3,286047001.4,N
1621667255.2,286047000.1,N
1621667275.9,286046999.8,N
1621667295.7,286047000.2,N
1621667315.6,286046998.2,N
1621667335.4,286047001.1,N
1621667355.2,286046999.6,N
1621667375.1,286046997.1,N
1621667376.0,286046997.1,N
1621667395.8,286046999.2,N
1621667415.7,286046996.6,N
1621667435.5,286047000.8,N
1621667455.3,286047002.7,N
1621667475.2,286047002.4,N
1621667495.0,286046997.1,N
1621667495.9,286046997.1,N
1621667515.7,286046998.0,N
1621667535.6,286046998.1,N
1621667555.4,286046999.6,N
1621667575.3,286047000.4,N
1621667595.1,286047001.6,N
1621667596.0,286047001.6,N
1621667615.8,286046999.7,N
1621667635.7,286047001.6,N
1621667655.5,286047001.4,N
1621667675.3,286047000.9,N
1621667695.2,286046998.4,N
1621667715.0,286046998.2,N
1621667715.9,286046998.2,N
1621667735.8,286047000.4,N
1621667755.6,286047000.8,N
1621667775.4,286046999.8,N
1621667795.3,286047001.1,N
1621667815.1,286047001.2,N
1621667835.8,286047001.5,N
1621667855.7,286046998.9,N
1621667875.5,286046999.5,N
1621667895.4,286046998.1,N
1621667915.2,286046999.1,N
1621667935.0,286046997.5,N
1621667935.9,286046997.5,N
1621667955.8,286046997.0,N
1621667975.6,286046999.6,N
1621667995.4,286046997.5,N
1621668015.3,286046993.9,Y
1621668035.1,286046994.6,P
1621668055.9,286046996.3,N
1621668075.7,286046995.1,N
1621668095.5,286046997.6,N
1621668115.4,286046999.2,N
1621668135.2,286046996.6,N
1621668155.0,286046996.5,N
1621668156.0,286046996.5,N
1621668175.8,286046998.5,N
1621668195.6,286046996.8,N
1621668215.5,286046998.4,N
1621668235.3,286047000.3,N
1621668255.1,286046996.5,N
1621668275.9,286046997.6,N
1621668295.7,286046996.2,N
1621668315.6,286046996.6,N
1621668335.4,286046998.7,N
1621668355.2,286046998.5,N
1621668375.1,286047000.0,N
1621668376.0,286047000.0,N
1621668395.8,286046998.9,N
1621668415.6,286046996.7,N
1621668435.5,286046996.6,N
1621668455.3,286046996.5,N
1621668475.2,286046997.0,N
1621668495.9,286046997.8,N
1621668515.7,286046995.7,N
1621668535.6,286046993.4,Y
1621668555.4,286046995.6,P
1621668575.2,286046997.4,N
1621668595.1,286046997.5,N
1621668596.0,286046997.5,Y
1621668615.8,286046999.5,P
1621668635.7,286046997.4,N
1621668655.5,286046996.6,P
1621668675.3,286046999.4,N
1621668695.2,286046996.8,N
1621668715.0,286046997.0,N
1621668715.9,286046997.0,N
1621668735.8,286046997.0,N
1621668755.6,286046997.1,N
1621668775.4,286046998.6,N
1621668795.3,286047000.7,N
1621668815.1,286047004.3,Y
1621668835.8,286047005.3,P
1621668855.7,286047007.2,N
1621668875.5,286047005.3,N
1621668895.4,286047005.1,N
1621668915.2,286047004.8,N
1621668935.0,286047002.9,N
1621668935.9,286047002.9,N
1621668955.8,286047005.4,N
1621668975.6,286047005.3,N
1621668995.4,286047004.2,N
1621669015.3,286047006.0,N
1621669035.1,286047011.9,Y
1621669055.9,286046999.6,P
1621669075.7,286046996.2,N
1621669095.5,286046995.9,N
1621669115.4,286046995.6,N
1621669135.2,286046995.0,N
1621669155.0,286046995.0,N
1621669155.9,286046995.0,N
1621669175.8,286046997.6,N
1621669195.6,286047001.2,N
1621669215.5,286047000.0,N
1621669235.3,286047000.1,N
1621669255.1,286047002.4,N
1621669275.9,286047000.7,N
1621669295.7,286047001.1,N
1621669315.5,286047000.7,N
1621669335.4,286046999.9,N
1621669355.2,286046999.7,N
1621669375.1,286046999.7,N
1621669376.0,286046999.7,N
1621669395.8,286046998.2,N
1621669415.6,286046998.5,N
1621669435.5,286047000.5,N
1621669455.3,286046999.8,N
1621669475.2,286047002.2,N
1621669495.9,286046998.5,N
1621669515.7,286046999.8,N
1621669535.6,286047000.6,N
1621669555.4,286047000.6,N
1621669575.2,286047000.4,N
1621669595.1,286047002.3,N
1621669596.0,286047002.3,N
1621669615.8,286046998.5,N
1621669635.7,286047001.2,N
1621669655.5,286047002.7,N
1621669675.3,286047002.7,N
1621669695.2,286047002.4,N
1621669715.0,286047003.9,N
1621669715.9,286047003.9,N
1621669735.7,286047002.0,N
1621669755.6,286047000.6,N
1621669775.4,286047001.2,N
1621669795.3,286047000.9,N
1621669815.1,286047002.7,N
1621669816.0,286047002.7,N
1621669835.8,286047002.1,N
1621669855.7,286046999.9,N
1621669875.5,286047000.0,N
1621669895.3,286047000.8,N
1621669915.2,286047000.0,N
1621669935.0,286047000.4,N
1621669935.9,286047000.4,N
1621669955.8,286046999.7,N
1621669975.6,286047002.8,N
1621669995.4,286046999.9,N
1621670015.3,286046998.2,N
1621670035.1,286046999.3,N
1621670055.8,286046999.3,N
1621670075.7,286046998.6,N
1621670095.5,286046998.7,N
1621670115.4,286047001.0,N
1621670135.2,286047000.0,N
1621670155.0,286046999.7,N
1621670155.9,286046999.7,N
1621670175.8,286047001.3,N
1621670195.6,286047004.0,N
1621670215.5,286047004.0,N
1621670235.3,286047005.3,Y
1621670255.1,286047003.0,P
1621670275.9,286047001.5,N
1621670295.7,286047002.8,P
1621670315.5,286047002.5,N
1621670335.4,286047001.8,N
1621670355.2,286046999.7,N
1621670375.1,286047002.6,N
1621670376.0,286047002.6,N
1621670395.8,286047003.6,Y
